Weather History for EHVK - February, 2014

Change the Weather History Date:

Monday, February 24, 2014

  Actual Average Record
Temperature  
Mean Temperature 47 °F -  
Max Temperature 57 °F 48 °F 57 °F (2014)
Min Temperature 37 °F 35 °F 24 °F (2004)
Degree Days  
Heating Degree Days 18    
Moisture  
Dew Point 37 °F    
Average Humidity 69    
Maximum Humidity 87    
Minimum Humidity 35    
Precipitation  
Precipitation 0.00 in - - ()
Sea Level Pressure  
Sea Level Pressure 29.89 in    
Wind  
Wind Speed 9 mph ()    
Max Wind Speed 16 mph    
Max Gust Speed -    
Visibility 7.7 miles    
Events      
Averages and records for this station are not official NWS values.
T = Trace of Precipitation, MM = Missing Value Source: Averaged Metar Reports

Daily Weather History Graph

Daily Weather History Graph

Search for Another Location

Airport or City:

Trip Planner

Search our weather history database for the weather conditions in past years. The results will help you decide how hot, cold, wet, or windy it might be!

Date:

Astronomy

Feb. 24, 2014 Rise Set
Actual Time 7:33 AM CET 6:08 PM CET
Civil Twilight 6:59 AM CET 6:42 PM CET
Nautical Twilight 6:20 AM CET 7:20 PM CET
Astronomical Twilight 5:42 AM CET 7:59 PM CET
Moon 3:39 AM CET (2/24) 12:30 PM CET (2/24)
Length of Visible Light 11h 42m
Length of Day
10h 34m
Waning Crescent, 31% of the Moon is Illuminated
Feb 24
Waning Crescent
Mar 1
New
Mar 8
First Quarter
Mar 16
Full
Mar 24
Last Quarter

Hourly Weather History & Observations

Time (CET) Temp. Windchill Dew Point Humidity Pressure Visibility Wind Dir Wind Speed Gust Speed Precip Events Conditions
12:00 AM 42 °F - 37 °F 75% 30.04 in 25 mi SE 8.9 mph - -   Mostly Cloudy
12:25 AM 41.0 °F 35.2 °F 37.4 °F 87% 30.04 in 6.2 mi SE 9.2 mph - N/A   Unknown
12:55 AM 41.0 °F 35.2 °F 37.4 °F 87% 30.01 in 6.2 mi SSE 9.2 mph - N/A   Unknown
1:00 AM 41 °F - 37 °F 79% 30.03 in 22 mi SE 8.9 mph - -   Partly Cloudy
1:25 AM 41.0 °F 35.8 °F 37.4 °F 87% 30.01 in 6.2 mi SE 8.1 mph - N/A   Unknown
1:55 AM 39.2 °F 34.2 °F 35.6 °F 87% 30.01 in 6.2 mi SE 6.9 mph - N/A   Partly Cloudy
2:00 AM 39 °F - 36 °F 83% 30.01 in 15 mi SE 6.7 mph - -  
2:25 AM 39.2 °F 34.2 °F 35.6 °F 87% 29.98 in 6.2 mi SE 6.9 mph - N/A   Unknown
2:55 AM 39.2 °F 33.6 °F 35.6 °F 87% 29.98 in 6.2 mi SE 8.1 mph - N/A   Unknown
3:00 AM 39 °F - 36 °F 84% 29.99 in 18 mi SE 6.7 mph - -  
3:25 AM 39.2 °F 35.0 °F 35.6 °F 87% 29.98 in 6.2 mi SE 5.8 mph - N/A   Unknown
3:55 AM 39.2 °F 34.2 °F 35.6 °F 87% 29.95 in 6.2 mi SE 6.9 mph - N/A   Unknown
4:00 AM 38 °F - 35 °F 84% 29.97 in 18 mi SE 6.7 mph - -  
4:25 AM 39.2 °F 33.6 °F 35.6 °F 87% 29.95 in 6.2 mi SE 8.1 mph - N/A   Unknown
4:55 AM 37.4 °F 31.4 °F 33.8 °F 87% 29.95 in 6.2 mi ESE 8.1 mph - N/A   Unknown
5:00 AM 38 °F - 34 °F 81% 29.96 in 22 mi SE 8.9 mph - -  
5:25 AM 39.2 °F 34.2 °F 33.8 °F 81% 29.95 in 6.2 mi SE 6.9 mph - N/A   Unknown
5:55 AM 37.4 °F 31.4 °F 33.8 °F 87% 29.92 in 6.2 mi ESE 8.1 mph - N/A   Unknown
6:00 AM 37 °F - 34 °F 84% 29.94 in 25 mi ESE 8.9 mph - -  
6:25 AM 37.4 °F 30.8 °F 33.8 °F 87% 29.92 in 6.2 mi ESE 9.2 mph - N/A   Partly Cloudy
6:55 AM 37.4 °F 31.4 °F 33.8 °F 87% 29.92 in 6.2 mi ESE 8.1 mph - N/A   Scattered Clouds
7:00 AM 38 °F - 34 °F 79% 29.94 in 22 mi ESE 8.9 mph - -   Partly Cloudy
7:25 AM 37.4 °F 31.4 °F 33.8 °F 87% 29.92 in 6.2 mi SE 8.1 mph - N/A   Partly Cloudy
7:55 AM 37.4 °F 31.4 °F 33.8 °F 87% 29.92 in 6.2 mi SE 8.1 mph - N/A   Unknown
8:00 AM 38 °F - 34 °F 81% 29.93 in 19 mi SE 8.9 mph - -  
8:25 AM 39.2 °F 33.6 °F 33.8 °F 81% 29.92 in 6.2 mi SE 8.1 mph - N/A   Unknown
8:55 AM 39.2 °F 33.0 °F 35.6 °F 87% 29.92 in 6.2 mi SE 9.2 mph - N/A   Unknown
9:00 AM 40 °F - 35 °F 75% 29.92 in 19 mi SE 8.9 mph - -  
9:25 AM 41.0 °F 35.2 °F 35.6 °F 81% 29.92 in 6.2 mi SE 9.2 mph - N/A   Unknown
9:55 AM 42.8 °F 36.6 °F 37.4 °F 81% 29.89 in 6.2 mi SE 11.5 mph - N/A   Unknown
10:00 AM 44 °F - 37 °F 67% 29.90 in 19 mi SE 11.2 mph - -   Scattered Clouds
10:25 AM 46.4 °F 40.7 °F 37.4 °F 71% 29.89 in 6.2 mi SSE 12.7 mph - N/A   Scattered Clouds
10:55 AM 48.2 °F - 37.4 °F 66% 29.86 in 6.2 mi SSE 12.7 mph - N/A   Unknown
11:00 AM 49 °F - 38 °F 56% 29.89 in 22 mi SSE 11.2 mph - -   Scattered Clouds
11:25 AM 50.0 °F - 37.4 °F 62% 29.86 in 6.2 mi South 13.8 mph - N/A   Partly Cloudy
11:55 AM 50.0 °F - 37.4 °F 62% 29.86 in 6.2 mi South 16.1 mph - N/A   Unknown
12:00 PM 51 °F - 38 °F 50% 29.88 in 22 mi South 13.4 mph - -   Scattered Clouds
12:25 PM 51.8 °F - 37.4 °F 58% 29.86 in 6.2 mi South 15.0 mph - N/A   Unknown
12:55 PM 53.6 °F - 37.4 °F 54% 29.86 in 6.2 mi South 15.0 mph - N/A   Partly Cloudy
1:00 PM 54 °F - 39 °F 45% 29.87 in 22 mi South 13.4 mph - -   Partly Cloudy
1:25 PM 53.6 °F - 39.2 °F 58% 29.86 in 6.2 mi South 15.0 mph - N/A   Partly Cloudy
1:55 PM 53.6 °F - 39.2 °F 58% 29.83 in 6.2 mi SSE 15.0 mph - N/A   Scattered Clouds
2:00 PM 55 °F - 39 °F 44% 29.85 in 19 mi SSE 13.4 mph - -   Scattered Clouds
2:25 PM 55.4 °F - 39.2 °F 54% 29.83 in 6.2 mi South 13.8 mph - N/A   Unknown
2:35 PM 55.4 °F - 39.2 °F 54% 29.83 in 6.2 mi South 12.7 mph - N/A   Partly Cloudy
2:55 PM 57.2 °F - 37.4 °F 48% 29.83 in 6.2 mi South 13.8 mph - N/A   Unknown
3:00 PM 57 °F - 37 °F 35% 29.84 in 22 mi South 13.4 mph - -  
3:25 PM 57.2 °F - 37.4 °F 48% 29.83 in 6.2 mi SSW 15.0 mph - N/A   Partly Cloudy
3:55 PM 57.2 °F - 37.4 °F 48% 29.83 in 6.2 mi South 13.8 mph - N/A   Partly Cloudy
4:00 PM 56 °F - 37 °F 38% 29.84 in 28 mi South 11.2 mph - -   Scattered Clouds
4:25 PM 55.4 °F - 37.4 °F 51% 29.83 in 6.2 mi South 11.5 mph - N/A   Unknown
4:55 PM 55.4 °F - 37.4 °F 51% 29.83 in 6.2 mi South 11.5 mph - N/A   Unknown
5:00 PM 54 °F - 38 °F 43% 29.84 in 28 mi South 11.2 mph - -  
5:25 PM 53.6 °F - 37.4 °F 54% 29.83 in 6.2 mi South 10.4 mph - N/A   Partly Cloudy
5:55 PM 51.8 °F - 39.2 °F 62% 29.83 in 6.2 mi SSE 6.9 mph - N/A   Mostly Cloudy
6:00 PM 52 °F - 38 °F 48% 29.84 in 28 mi SSE 6.7 mph - -   Mostly Cloudy
6:25 PM 50.0 °F - 37.4 °F 62% 29.83 in 6.2 mi South 5.8 mph - N/A   Overcast
6:55 PM 50.0 °F - 37.4 °F 62% 29.83 in 6.2 mi South 6.9 mph - N/A   Overcast
7:00 PM 50 °F - 38 °F 53% 29.86 in 28 mi SSE 6.7 mph - -   Partly Cloudy
7:25 PM 50.0 °F - 37.4 °F 62% 29.86 in 6.2 mi SSE 6.9 mph - N/A   Overcast
7:55 PM 48.2 °F - 37.4 °F 66% 29.86 in 6.2 mi South 6.9 mph - N/A   Mostly Cloudy
8:00 PM 49 °F - 37 °F 54% 29.86 in 28 mi South 4.5 mph - -   Partly Cloudy
8:25 PM 48.2 °F - 37.4 °F 66% 29.86 in 6.2 mi South 5.8 mph - N/A   Unknown
8:55 PM 48.2 °F - 37.4 °F 66% 29.86 in 6.2 mi South 4.6 mph - N/A   Unknown
9:00 PM 47 °F - 37 °F 59% 29.87 in 28 mi South 4.5 mph - -  
9:25 PM 46.4 °F 43.5 °F 37.4 °F 71% 29.86 in 6.2 mi SSE 5.8 mph - N/A   Unknown
9:55 PM 46.4 °F 42.9 °F 37.4 °F 71% 29.86 in 6.2 mi SSE 6.9 mph - N/A   Scattered Clouds
10:00 PM 46 °F - 37 °F 63% 29.86 in 28 mi SSE 6.7 mph - -   Partly Cloudy
10:25 PM 46.4 °F 42.9 °F 37.4 °F 71% 29.86 in 6.2 mi SSE 6.9 mph - N/A   Overcast
10:30 PM 46.4 °F 42.4 °F 37.4 °F 71% 29.83 in 6.2 mi SSE 8.1 mph - N/A   Mostly Cloudy
10:55 PM 44.6 °F 41.4 °F 37.4 °F 76% 29.83 in 6.2 mi SSE 5.8 mph - N/A   Unknown
11:00 PM 45 °F - 37 °F 64% 29.85 in 28 mi SSE 6.7 mph - -  
11:25 PM 44.6 °F 40.7 °F 37.4 °F 76% 29.83 in 6.2 mi SSE 6.9 mph - N/A   Partly Cloudy
11:55 PM 44.6 °F 40.2 °F 37.4 °F 76% 29.83 in 6.2 mi SSE 8.1 mph - N/A   Unknown